Year,Month,Day,Hour,Minute,Value (Times are PST for temperature in C)
2016,08,16,00,00,20.80
2016,08,16,00,01,20.80
2016,08,16,00,02,20.80
2016,08,16,00,03,20.80
2016,08,16,00,04,20.90
2016,08,16,00,05,20.90
2016,08,16,00,06,20.90
2016,08,16,00,07,21.00
2016,08,16,00,08,21.00
2016,08,16,00,09,21.00
2016,08,16,00,10,21.10
2016,08,16,00,11,21.10
2016,08,16,00,12,21.10
2016,08,16,00,13,21.10
2016,08,16,00,14,21.10
2016,08,16,00,15,21.10
2016,08,16,00,16,21.10
2016,08,16,00,17,21.10
2016,08,16,00,18,21.10
2016,08,16,00,19,21.10
2016,08,16,00,20,21.10
2016,08,16,00,21,21.00
2016,08,16,00,22,21.00
2016,08,16,00,23,21.00
2016,08,16,00,24,21.00
2016,08,16,00,25,20.90
2016,08,16,00,26,20.90
2016,08,16,00,27,20.90
2016,08,16,00,28,20.80
2016,08,16,00,29,20.80
2016,08,16,00,30,20.80
2016,08,16,00,31,20.80
2016,08,16,00,32,20.70
2016,08,16,00,33,20.70
2016,08,16,00,34,20.70
2016,08,16,00,35,20.60
2016,08,16,00,36,20.60
2016,08,16,00,37,20.60
2016,08,16,00,38,20.60
2016,08,16,00,39,20.50
2016,08,16,00,40,20.50
2016,08,16,00,41,20.50
2016,08,16,00,42,20.40
2016,08,16,00,43,20.40
2016,08,16,00,44,20.40
2016,08,16,00,45,20.40
2016,08,16,00,46,20.40
2016,08,16,00,47,20.30
2016,08,16,00,48,20.30
2016,08,16,00,49,20.30
2016,08,16,00,50,20.30
2016,08,16,00,51,20.30
2016,08,16,00,52,20.30
2016,08,16,00,53,20.30
2016,08,16,00,54,20.30
2016,08,16,00,55,20.20
2016,08,16,00,56,20.20
2016,08,16,00,57,20.20
2016,08,16,00,58,20.20
2016,08,16,00,59,20.20
2016,08,16,01,00,20.20
2016,08,16,01,01,20.20
2016,08,16,01,02,20.10
2016,08,16,01,03,20.10
2016,08,16,01,04,20.10
2016,08,16,01,05,20.10
2016,08,16,01,06,20.00
2016,08,16,01,07,20.00
2016,08,16,01,08,20.00
2016,08,16,01,09,19.90
2016,08,16,01,10,19.90
2016,08,16,01,11,19.90
2016,08,16,01,12,19.90
2016,08,16,01,13,19.90
2016,08,16,01,14,19.80
2016,08,16,01,15,19.80
2016,08,16,01,16,19.80
2016,08,16,01,17,19.80
2016,08,16,01,18,19.70
2016,08,16,01,19,19.70
2016,08,16,01,20,19.70
2016,08,16,01,21,19.70
2016,08,16,01,22,19.60
2016,08,16,01,23,19.60
2016,08,16,01,24,19.60
2016,08,16,01,25,19.60
2016,08,16,01,26,19.50
2016,08,16,01,27,19.50
2016,08,16,01,28,19.50
2016,08,16,01,29,19.50
2016,08,16,01,30,19.50
2016,08,16,01,31,19.50
2016,08,16,01,32,19.40
2016,08,16,01,33,19.40
2016,08,16,01,34,19.50
2016,08,16,01,35,19.50
2016,08,16,01,36,19.50
2016,08,16,01,37,19.60
2016,08,16,01,38,19.60
2016,08,16,01,39,19.60
2016,08,16,01,40,19.70
2016,08,16,01,41,19.70
2016,08,16,01,42,19.80
2016,08,16,01,43,19.90
2016,08,16,01,44,19.90
2016,08,16,01,45,20.00
2016,08,16,01,46,20.10
2016,08,16,01,47,20.20
2016,08,16,01,48,20.20
2016,08,16,01,49,20.30
2016,08,16,01,50,20.30
2016,08,16,01,51,20.30
2016,08,16,01,52,20.30
2016,08,16,01,53,20.30
2016,08,16,01,54,20.40
2016,08,16,01,55,20.40
2016,08,16,01,56,20.40
2016,08,16,01,57,20.40
2016,08,16,01,58,20.40
2016,08,16,01,59,20.40
2016,08,16,02,00,20.40
2016,08,16,02,01,20.30
2016,08,16,02,02,20.30
2016,08,16,02,03,20.30
2016,08,16,02,04,20.30
2016,08,16,02,05,20.30
2016,08,16,02,06,20.20
2016,08,16,02,07,20.20
2016,08,16,02,08,20.20
2016,08,16,02,09,20.20
2016,08,16,02,10,20.30
2016,08,16,02,11,20.30
2016,08,16,02,12,20.30
2016,08,16,02,13,20.30
2016,08,16,02,14,20.30
2016,08,16,02,15,20.30
2016,08,16,02,16,20.30
2016,08,16,02,17,20.20
2016,08,16,02,18,20.20
2016,08,16,02,19,20.20
2016,08,16,02,20,20.20
2016,08,16,02,21,20.20
2016,08,16,02,22,20.10
2016,08,16,02,23,20.10
2016,08,16,02,24,20.10
2016,08,16,02,25,20.10
2016,08,16,02,26,20.10
2016,08,16,02,27,20.10
2016,08,16,02,28,20.10
2016,08,16,02,29,20.10
2016,08,16,02,30,20.20
2016,08,16,02,31,20.20
2016,08,16,02,32,20.20
2016,08,16,02,33,20.20
2016,08,16,02,34,20.20
2016,08,16,02,35,20.20
2016,08,16,02,36,20.20
2016,08,16,02,37,20.20
2016,08,16,02,38,20.20
2016,08,16,02,39,20.20
2016,08,16,02,40,20.20
2016,08,16,02,41,20.20
2016,08,16,02,42,20.20
2016,08,16,02,43,20.20
2016,08,16,02,44,20.10
2016,08,16,02,45,20.10
2016,08,16,02,46,20.10
2016,08,16,02,47,20.10
2016,08,16,02,48,20.10
2016,08,16,02,49,20.10
2016,08,16,02,50,20.10
2016,08,16,02,51,20.10
2016,08,16,02,52,20.10
2016,08,16,02,53,20.10
2016,08,16,02,54,20.10
2016,08,16,02,55,20.10
2016,08,16,02,56,20.00
2016,08,16,02,57,20.00
2016,08,16,02,58,20.00
2016,08,16,02,59,19.90
2016,08,16,03,00,19.90
2016,08,16,03,01,19.90
2016,08,16,03,02,19.90
2016,08,16,03,03,19.80
2016,08,16,03,04,19.80
2016,08,16,03,05,19.80
2016,08,16,03,06,19.80
2016,08,16,03,07,19.70
2016,08,16,03,08,19.70
2016,08,16,03,09,19.70
2016,08,16,03,10,19.70
2016,08,16,03,11,19.60
2016,08,16,03,12,19.60
2016,08,16,03,13,19.50
2016,08,16,03,14,19.50
2016,08,16,03,15,19.40
2016,08,16,03,16,19.40
2016,08,16,03,17,19.40
2016,08,16,03,18,19.40
2016,08,16,03,19,19.30
2016,08,16,03,20,19.30
2016,08,16,03,21,19.20
2016,08,16,03,22,19.20
2016,08,16,03,23,19.20
2016,08,16,03,24,19.10
2016,08,16,03,25,19.10
2016,08,16,03,26,19.00
2016,08,16,03,27,19.00
2016,08,16,03,28,19.00
2016,08,16,03,29,18.90
2016,08,16,03,30,18.90
2016,08,16,03,31,18.90
2016,08,16,03,32,18.90
2016,08,16,03,33,18.90
2016,08,16,03,34,18.80
2016,08,16,03,35,18.80
2016,08,16,03,36,18.80
2016,08,16,03,37,18.80
2016,08,16,03,38,18.80
2016,08,16,03,39,18.80
2016,08,16,03,40,18.80
2016,08,16,03,41,18.80
2016,08,16,03,42,18.80
2016,08,16,03,43,18.80
2016,08,16,03,44,18.80
2016,08,16,03,45,18.70
2016,08,16,03,46,18.80
2016,08,16,03,47,18.80
2016,08,16,03,48,18.80
2016,08,16,03,49,18.70
2016,08,16,03,50,18.70
2016,08,16,03,51,18.70
2016,08,16,03,52,18.70
2016,08,16,03,53,18.70
2016,08,16,03,54,18.70
2016,08,16,03,55,18.70
2016,08,16,03,56,18.70
2016,08,16,03,57,18.70
2016,08,16,03,58,18.70
2016,08,16,03,59,18.70
2016,08,16,04,00,18.70
2016,08,16,04,01,18.70
2016,08,16,04,02,18.70
2016,08,16,04,03,18.70
2016,08,16,04,04,18.70
2016,08,16,04,05,18.70
2016,08,16,04,06,18.70
2016,08,16,04,07,18.70
2016,08,16,04,08,18.70
2016,08,16,04,09,18.70
2016,08,16,04,10,18.70
2016,08,16,04,11,18.70
2016,08,16,04,12,18.60
2016,08,16,04,13,18.60
2016,08,16,04,14,18.60
2016,08,16,04,15,18.60
2016,08,16,04,16,18.60
2016,08,16,04,17,18.60
2016,08,16,04,18,18.60
2016,08,16,04,19,18.50
2016,08,16,04,20,18.50
2016,08,16,04,21,18.50
2016,08,16,04,22,18.50
2016,08,16,04,23,18.50
2016,08,16,04,24,18.50
2016,08,16,04,25,18.50
2016,08,16,04,26,18.50
2016,08,16,04,27,18.50
2016,08,16,04,28,18.50
2016,08,16,04,29,18.50
2016,08,16,04,30,18.50
2016,08,16,04,31,18.50
2016,08,16,04,32,18.50
2016,08,16,04,33,18.50
2016,08,16,04,34,18.50
2016,08,16,04,35,18.50
2016,08,16,04,36,18.50
2016,08,16,04,37,18.50
2016,08,16,04,38,18.50
2016,08,16,04,39,18.50
2016,08,16,04,40,18.40
2016,08,16,04,41,18.40
2016,08,16,04,42,18.40
2016,08,16,04,43,18.40
2016,08,16,04,44,18.40
2016,08,16,04,45,18.40
2016,08,16,04,46,18.40
2016,08,16,04,47,18.40
2016,08,16,04,48,18.40
2016,08,16,04,49,18.40
2016,08,16,04,50,18.40
2016,08,16,04,51,18.40
2016,08,16,04,52,18.40
2016,08,16,04,53,18.30
2016,08,16,04,54,18.30
2016,08,16,04,55,18.30
2016,08,16,04,56,18.30
2016,08,16,04,57,18.30
2016,08,16,04,58,18.30
2016,08,16,04,59,18.30
2016,08,16,05,00,18.20
2016,08,16,05,01,18.20
2016,08,16,05,02,18.20
2016,08,16,05,03,18.20
2016,08,16,05,04,18.20
2016,08,16,05,05,18.20
2016,08,16,05,06,18.20
2016,08,16,05,07,18.20
2016,08,16,05,08,18.20
2016,08,16,05,09,18.10
2016,08,16,05,10,18.10
2016,08,16,05,11,18.10
2016,08,16,05,12,18.10
2016,08,16,05,13,18.20
2016,08,16,05,14,18.20
2016,08,16,05,15,18.20
2016,08,16,05,16,18.10
2016,08,16,05,17,18.10
2016,08,16,05,18,18.20
2016,08,16,05,19,18.20
2016,08,16,05,20,18.10
2016,08,16,05,21,18.10
2016,08,16,05,22,18.10
2016,08,16,05,23,18.10
2016,08,16,05,24,18.20
2016,08,16,05,25,18.20
2016,08,16,05,26,18.20
2016,08,16,05,27,18.20
2016,08,16,05,28,18.20
2016,08,16,05,29,18.20
2016,08,16,05,30,18.20
2016,08,16,05,31,18.20
2016,08,16,05,32,18.20
2016,08,16,05,33,18.20
2016,08,16,05,34,18.20
2016,08,16,05,35,18.20
2016,08,16,05,36,18.20
2016,08,16,05,37,18.20
2016,08,16,05,38,18.20
2016,08,16,05,39,18.20
2016,08,16,05,40,18.20
2016,08,16,05,41,18.20
2016,08,16,05,42,18.20
2016,08,16,05,43,18.30
2016,08,16,05,44,18.30
2016,08,16,05,45,18.30
2016,08,16,05,46,18.30
2016,08,16,05,47,18.30
2016,08,16,05,48,18.30
2016,08,16,05,49,18.30
2016,08,16,05,50,18.30
2016,08,16,05,51,18.30
2016,08,16,05,52,18.30
2016,08,16,05,53,18.30
2016,08,16,05,54,18.30
2016,08,16,05,55,18.30
2016,08,16,05,56,18.30
2016,08,16,05,57,18.30
2016,08,16,05,58,18.30
2016,08,16,05,59,18.30
2016,08,16,06,00,18.30
2016,08,16,06,01,18.30
2016,08,16,06,02,18.30
2016,08,16,06,03,18.30
2016,08,16,06,04,18.30
2016,08,16,06,05,18.30
2016,08,16,06,06,18.20
2016,08,16,06,07,18.20
2016,08,16,06,08,18.20
2016,08,16,06,09,18.20
2016,08,16,06,10,18.20
2016,08,16,06,11,18.20
2016,08,16,06,12,18.20
2016,08,16,06,13,18.20
2016,08,16,06,14,18.20
2016,08,16,06,15,18.20
2016,08,16,06,16,18.20
2016,08,16,06,17,18.20
2016,08,16,06,18,18.20
2016,08,16,06,19,18.20
2016,08,16,06,20,18.20
2016,08,16,06,21,18.20
2016,08,16,06,22,18.20
2016,08,16,06,23,18.20
2016,08,16,06,24,18.20
2016,08,16,06,25,18.10
2016,08,16,06,26,18.20
2016,08,16,06,27,18.20
2016,08,16,06,28,18.20
2016,08,16,06,29,18.20
2016,08,16,06,30,18.20
2016,08,16,06,31,18.30
2016,08,16,06,32,18.30
2016,08,16,06,33,18.30
2016,08,16,06,34,18.30
2016,08,16,06,35,18.30
2016,08,16,06,36,18.40
2016,08,16,06,37,18.40
2016,08,16,06,38,18.40
2016,08,16,06,39,18.40
2016,08,16,06,40,18.40
2016,08,16,06,41,18.40
2016,08,16,06,42,18.40
2016,08,16,06,43,18.40
2016,08,16,06,44,18.50
2016,08,16,06,45,18.50
2016,08,16,06,46,18.50
2016,08,16,06,47,18.50
2016,08,16,06,48,18.50
2016,08,16,06,49,18.50
2016,08,16,06,50,18.50
2016,08,16,06,51,18.50
2016,08,16,06,52,18.50
2016,08,16,06,53,18.50
2016,08,16,06,54,18.50
2016,08,16,06,55,18.50
2016,08,16,06,56,18.50
2016,08,16,06,57,18.50
2016,08,16,06,58,18.50
2016,08,16,06,59,18.50
2016,08,16,07,00,18.50
2016,08,16,07,01,18.50
2016,08,16,07,02,18.50
2016,08,16,07,03,18.50
2016,08,16,07,04,18.50
2016,08,16,07,05,18.50
2016,08,16,07,06,18.50
2016,08,16,07,07,18.50
2016,08,16,07,08,18.40
2016,08,16,07,09,18.40
2016,08,16,07,10,18.40
2016,08,16,07,11,18.40
2016,08,16,07,12,18.40
2016,08,16,07,13,18.40
2016,08,16,07,14,18.40
2016,08,16,07,15,18.40
2016,08,16,07,16,18.40
2016,08,16,07,17,18.40
2016,08,16,07,18,18.40
2016,08,16,07,19,18.40
2016,08,16,07,20,18.40
2016,08,16,07,21,18.40
2016,08,16,07,22,18.30
2016,08,16,07,23,18.30
2016,08,16,07,24,18.30
2016,08,16,07,25,18.30
2016,08,16,07,26,18.30
2016,08,16,07,27,18.30
2016,08,16,07,28,18.30
2016,08,16,07,29,18.30
2016,08,16,07,30,18.30
2016,08,16,07,31,18.30
2016,08,16,07,32,18.30
2016,08,16,07,33,18.30
2016,08,16,07,34,18.40
2016,08,16,07,35,18.40
2016,08,16,07,36,18.40
2016,08,16,07,37,18.40
2016,08,16,07,38,18.40
2016,08,16,07,39,18.40
2016,08,16,07,40,18.50
2016,08,16,07,41,18.50
2016,08,16,07,42,18.50
2016,08,16,07,43,18.60
2016,08,16,07,44,18.60
2016,08,16,07,45,18.60
2016,08,16,07,46,18.60
2016,08,16,07,47,18.60
2016,08,16,07,48,18.60
2016,08,16,07,49,18.60
2016,08,16,07,50,18.60
2016,08,16,07,51,18.70
2016,08,16,07,52,18.70
2016,08,16,07,53,18.70
2016,08,16,07,54,18.80
2016,08,16,07,55,18.80
2016,08,16,07,56,18.80
2016,08,16,07,57,18.80
2016,08,16,07,58,18.80
2016,08,16,07,59,18.80
2016,08,16,08,00,18.80
2016,08,16,08,01,18.80
2016,08,16,08,02,18.90
2016,08,16,08,03,18.90
2016,08,16,08,04,18.90
2016,08,16,08,05,18.90
2016,08,16,08,06,18.90
2016,08,16,08,07,18.90
2016,08,16,08,08,19.00
2016,08,16,08,09,19.00
2016,08,16,08,10,19.00
2016,08,16,08,11,19.00
2016,08,16,08,12,19.00
2016,08,16,08,13,19.00
2016,08,16,08,14,19.00
2016,08,16,08,15,19.10
2016,08,16,08,16,19.10
2016,08,16,08,17,19.10
2016,08,16,08,18,19.10
2016,08,16,08,19,19.10
2016,08,16,08,20,19.10
2016,08,16,08,21,19.10
2016,08,16,08,22,19.10
2016,08,16,08,23,19.10
2016,08,16,08,24,19.10
2016,08,16,08,25,19.10
2016,08,16,08,26,19.10
2016,08,16,08,27,19.20
2016,08,16,08,28,19.20
2016,08,16,08,29,19.30
2016,08,16,08,30,19.30
2016,08,16,08,31,19.30
2016,08,16,08,32,19.30
2016,08,16,08,33,19.40
2016,08,16,08,34,19.40
2016,08,16,08,35,19.40
2016,08,16,08,36,19.40
2016,08,16,08,37,19.50
2016,08,16,08,38,19.50
2016,08,16,08,39,19.50
2016,08,16,08,40,19.60
2016,08,16,08,41,19.60
2016,08,16,08,42,19.60
2016,08,16,08,43,19.60
2016,08,16,08,44,19.70
2016,08,16,08,45,19.70
2016,08,16,08,46,19.80
2016,08,16,08,47,19.80
2016,08,16,08,48,19.80
2016,08,16,08,49,19.90
2016,08,16,08,50,19.90
2016,08,16,08,51,19.90
2016,08,16,08,52,19.90
2016,08,16,08,53,19.90
2016,08,16,08,54,19.90
2016,08,16,08,55,20.00
2016,08,16,08,56,20.00
2016,08,16,08,57,20.00
2016,08,16,08,58,20.00
2016,08,16,08,59,20.00
2016,08,16,09,00,20.00
2016,08,16,09,01,20.10
2016,08,16,09,02,20.10
2016,08,16,09,03,20.10
2016,08,16,09,04,20.10
2016,08,16,09,05,20.20
2016,08,16,09,06,20.20
2016,08,16,09,07,20.20
2016,08,16,09,08,20.20
2016,08,16,09,09,20.20
2016,08,16,09,10,20.20
2016,08,16,09,11,20.10
2016,08,16,09,12,20.20
2016,08,16,09,13,20.20
2016,08,16,09,14,20.20
2016,08,16,09,15,20.20
2016,08,16,09,16,20.20
2016,08,16,09,17,20.30
2016,08,16,09,18,20.30
2016,08,16,09,19,20.30
2016,08,16,09,20,20.30
2016,08,16,09,21,20.40
2016,08,16,09,22,20.40
2016,08,16,09,23,20.50
2016,08,16,09,24,20.50
2016,08,16,09,25,20.60
2016,08,16,09,26,20.60
2016,08,16,09,27,20.60
2016,08,16,09,28,20.60
2016,08,16,09,29,20.60
2016,08,16,09,30,20.60
2016,08,16,09,31,20.60
2016,08,16,09,32,20.60
2016,08,16,09,33,20.70
2016,08,16,09,34,20.70
2016,08,16,09,35,20.80
2016,08,16,09,36,20.80
2016,08,16,09,37,20.90
2016,08,16,09,38,20.90
2016,08,16,09,39,20.90
2016,08,16,09,40,20.90
2016,08,16,09,41,21.00
2016,08,16,09,42,21.00
2016,08,16,09,43,21.00
2016,08,16,09,44,21.00
2016,08,16,09,45,21.00
2016,08,16,09,46,21.10
2016,08,16,09,47,21.10
2016,08,16,09,48,21.20
2016,08,16,09,49,21.20
2016,08,16,09,50,21.30
2016,08,16,09,51,21.30
2016,08,16,09,52,21.40
2016,08,16,09,53,21.50
2016,08,16,09,54,21.50
2016,08,16,09,55,21.50
2016,08,16,09,56,21.50
2016,08,16,09,57,21.40
2016,08,16,09,58,21.30
2016,08,16,09,59,21.20
2016,08,16,10,00,21.20
2016,08,16,10,01,21.20
2016,08,16,10,02,21.20
2016,08,16,10,03,21.20
2016,08,16,10,04,21.20
2016,08,16,10,05,21.20
2016,08,16,10,06,21.20
2016,08,16,10,07,21.20
2016,08,16,10,08,21.20
2016,08,16,10,09,21.20
2016,08,16,10,10,21.10
2016,08,16,10,11,21.10
2016,08,16,10,12,21.10
2016,08,16,10,13,21.10
2016,08,16,10,14,21.10
2016,08,16,10,15,21.10
2016,08,16,10,16,21.10
2016,08,16,10,17,21.20
2016,08,16,10,18,21.20
2016,08,16,10,19,21.20
2016,08,16,10,20,21.20
2016,08,16,10,21,21.20
2016,08,16,10,22,21.20
2016,08,16,10,23,21.30
2016,08,16,10,24,21.30
2016,08,16,10,25,21.40
2016,08,16,10,26,21.50
2016,08,16,10,27,21.60
2016,08,16,10,28,21.70
2016,08,16,10,29,21.80
2016,08,16,10,30,21.90
2016,08,16,10,31,21.90
2016,08,16,10,32,22.00
2016,08,16,10,33,22.00
2016,08,16,10,34,22.00
2016,08,16,10,35,22.00
2016,08,16,10,36,21.90
2016,08,16,10,37,21.90
2016,08,16,10,38,21.80
2016,08,16,10,39,21.80
2016,08,16,10,40,21.80
2016,08,16,10,41,21.70
2016,08,16,10,42,21.70
2016,08,16,10,43,21.70
2016,08,16,10,44,21.80
2016,08,16,10,45,21.80
2016,08,16,10,46,21.80
2016,08,16,10,47,21.80
2016,08,16,10,48,21.90
2016,08,16,10,49,21.90
2016,08,16,10,50,21.80
2016,08,16,10,51,21.80
2016,08,16,10,52,21.80
2016,08,16,10,53,21.80
2016,08,16,10,54,21.90
2016,08,16,10,55,21.90
2016,08,16,10,56,21.90
2016,08,16,10,57,21.90
2016,08,16,10,58,21.90
2016,08,16,10,59,21.90
2016,08,16,11,00,21.90
2016,08,16,11,01,21.90
2016,08,16,11,02,21.90
2016,08,16,11,03,21.90
2016,08,16,11,04,21.90
2016,08,16,11,05,21.90
2016,08,16,11,06,21.90
2016,08,16,11,07,21.90
2016,08,16,11,08,21.90
2016,08,16,11,09,21.90
2016,08,16,11,10,21.80
2016,08,16,11,11,21.80
2016,08,16,11,12,21.90
2016,08,16,11,13,22.00
2016,08,16,11,14,22.10
2016,08,16,11,15,22.10
2016,08,16,11,16,22.10
2016,08,16,11,17,22.10
2016,08,16,11,18,22.10
2016,08,16,11,19,22.10
2016,08,16,11,20,22.20
2016,08,16,11,21,22.20
2016,08,16,11,22,22.20
2016,08,16,11,23,22.20
2016,08,16,11,24,22.20
2016,08,16,11,25,22.20
2016,08,16,11,26,22.20
2016,08,16,11,27,22.30
2016,08,16,11,28,22.30
2016,08,16,11,29,22.40
2016,08,16,11,30,22.40
2016,08,16,11,31,22.40
2016,08,16,11,32,22.40
2016,08,16,11,33,22.40
2016,08,16,11,34,22.50
2016,08,16,11,35,22.50
2016,08,16,11,36,22.50
2016,08,16,11,37,22.40
2016,08,16,11,38,22.50
2016,08,16,11,39,22.50
2016,08,16,11,40,22.50
2016,08,16,11,41,22.40
2016,08,16,11,42,22.50
2016,08,16,11,43,22.50
2016,08,16,11,44,22.60
2016,08,16,11,45,22.70
2016,08,16,11,46,22.80
2016,08,16,11,47,22.80
2016,08,16,11,48,22.80
2016,08,16,11,49,22.90
2016,08,16,11,50,22.90
2016,08,16,11,51,22.90
2016,08,16,11,52,22.90
2016,08,16,11,53,22.90
2016,08,16,11,54,22.90
2016,08,16,11,55,22.80
2016,08,16,11,56,22.80
2016,08,16,11,57,22.80
2016,08,16,11,58,22.80
2016,08,16,11,59,22.80
2016,08,16,12,00,22.70
2016,08,16,12,01,22.60
2016,08,16,12,02,22.60
2016,08,16,12,03,22.60
2016,08,16,12,04,22.50
2016,08,16,12,05,22.50
2016,08,16,12,06,22.50
2016,08,16,12,07,22.40
2016,08,16,12,08,22.40
2016,08,16,12,09,22.40
2016,08,16,12,10,22.50
2016,08,16,12,11,22.50
2016,08,16,12,12,22.60
2016,08,16,12,13,22.60
2016,08,16,12,14,22.60
2016,08,16,12,15,22.50
2016,08,16,12,16,22.50
2016,08,16,12,17,22.50
2016,08,16,12,18,22.50
2016,08,16,12,19,22.40
2016,08,16,12,20,22.40
2016,08,16,12,21,22.30
2016,08,16,12,22,22.30
2016,08,16,12,23,22.40
2016,08,16,12,24,22.40
2016,08,16,12,25,22.50
2016,08,16,12,26,22.50
2016,08,16,12,27,22.50
2016,08,16,12,28,22.50
2016,08,16,12,29,22.50
2016,08,16,12,30,22.50
2016,08,16,12,31,22.60
2016,08,16,12,32,22.60
2016,08,16,12,33,22.60
2016,08,16,12,34,22.50
2016,08,16,12,35,22.50
2016,08,16,12,36,22.50
2016,08,16,12,37,22.50
2016,08,16,12,38,22.50
2016,08,16,12,39,22.50
2016,08,16,12,40,22.60
2016,08,16,12,41,22.70
2016,08,16,12,42,22.80
2016,08,16,12,43,22.90
2016,08,16,12,44,22.90
2016,08,16,12,45,23.00
2016,08,16,12,46,23.00
2016,08,16,12,47,23.10
2016,08,16,12,48,23.10
2016,08,16,12,49,23.20
2016,08,16,12,50,23.20
2016,08,16,12,51,23.30
2016,08,16,12,52,23.40
2016,08,16,12,53,23.40
2016,08,16,12,54,23.50
2016,08,16,12,55,23.60
2016,08,16,12,56,23.60
2016,08,16,12,57,23.70
2016,08,16,12,58,23.70
2016,08,16,12,59,23.70
2016,08,16,13,00,23.70
2016,08,16,13,01,23.60
2016,08,16,13,02,23.50
2016,08,16,13,03,23.50
2016,08,16,13,04,23.40
2016,08,16,13,05,23.40
2016,08,16,13,06,23.30
2016,08,16,13,07,23.30
2016,08,16,13,08,23.30
2016,08,16,13,09,23.30
2016,08,16,13,10,23.40
2016,08,16,13,11,23.50
2016,08,16,13,12,23.50
2016,08,16,13,13,23.40
2016,08,16,13,14,23.40
2016,08,16,13,15,23.50
2016,08,16,13,16,23.50
2016,08,16,13,17,23.50
2016,08,16,13,18,23.50
2016,08,16,13,19,23.60
2016,08,16,13,20,23.70
2016,08,16,13,21,23.80
2016,08,16,13,22,23.90
2016,08,16,13,23,23.90
2016,08,16,13,24,24.00
2016,08,16,13,25,24.00
2016,08,16,13,26,24.10
2016,08,16,13,27,24.20
2016,08,16,13,28,24.30
2016,08,16,13,29,24.30
2016,08,16,13,30,24.30
2016,08,16,13,31,24.20
2016,08,16,13,32,24.20
2016,08,16,13,33,24.20
2016,08,16,13,34,24.30
2016,08,16,13,35,24.30
2016,08,16,13,36,24.40
2016,08,16,13,37,24.40
2016,08,16,13,38,24.50
2016,08,16,13,39,24.60
2016,08,16,13,40,24.60
2016,08,16,13,41,24.70
2016,08,16,13,42,24.70
2016,08,16,13,43,24.80
2016,08,16,13,44,24.90
2016,08,16,13,45,25.00
2016,08,16,13,46,25.00
2016,08,16,13,47,25.10
2016,08,16,13,48,25.20
2016,08,16,13,49,25.20
2016,08,16,13,50,25.20
2016,08,16,13,51,25.20
2016,08,16,13,52,25.20
2016,08,16,13,53,25.20
2016,08,16,13,54,25.30
2016,08,16,13,55,25.30
2016,08,16,13,56,25.40
2016,08,16,13,57,25.40
2016,08,16,13,58,25.50
2016,08,16,13,59,25.40
2016,08,16,14,00,25.40
2016,08,16,14,01,25.40
2016,08,16,14,02,25.40
2016,08,16,14,03,25.30
2016,08,16,14,04,25.30
2016,08,16,14,05,25.30
2016,08,16,14,06,25.40
2016,08,16,14,07,25.50
2016,08,16,14,08,25.50
2016,08,16,14,09,25.60
2016,08,16,14,10,25.70
2016,08,16,14,11,25.70
2016,08,16,14,12,25.70
2016,08,16,14,13,25.70
2016,08,16,14,14,25.80
2016,08,16,14,15,25.80
2016,08,16,14,16,25.90
2016,08,16,14,17,25.90
2016,08,16,14,18,25.90
2016,08,16,14,19,25.90
2016,08,16,14,20,25.90
2016,08,16,14,21,25.90
2016,08,16,14,22,26.00
2016,08,16,14,23,26.10
2016,08,16,14,24,26.10
2016,08,16,14,25,26.10
2016,08,16,14,26,26.20
2016,08,16,14,27,26.20
2016,08,16,14,28,26.20
2016,08,16,14,29,26.20
2016,08,16,14,30,26.20
2016,08,16,14,31,26.20
2016,08,16,14,32,26.20
2016,08,16,14,33,26.10
2016,08,16,14,34,26.20
2016,08,16,14,35,26.20
2016,08,16,14,36,26.20
2016,08,16,14,37,26.30
2016,08,16,14,38,26.30
2016,08,16,14,39,26.40
2016,08,16,14,40,26.40
2016,08,16,14,41,26.40
2016,08,16,14,42,26.30
2016,08,16,14,43,26.30
2016,08,16,14,44,26.20
2016,08,16,14,45,26.20
2016,08,16,14,46,26.20
2016,08,16,14,47,26.30
2016,08,16,14,48,26.30
2016,08,16,14,49,26.30
2016,08,16,14,50,26.30
2016,08,16,14,51,26.30
2016,08,16,14,52,26.30
2016,08,16,14,53,26.30
2016,08,16,14,54,26.20
2016,08,16,14,55,26.20
2016,08,16,14,56,26.10
2016,08,16,14,57,26.20
2016,08,16,14,58,26.20
2016,08,16,14,59,26.20
2016,08,16,15,00,26.30
2016,08,16,15,01,26.30
2016,08,16,15,02,26.40
2016,08,16,15,03,26.40
2016,08,16,15,04,26.40
2016,08,16,15,05,26.40
2016,08,16,15,06,26.40
2016,08,16,15,07,26.40
2016,08,16,15,08,26.50
2016,08,16,15,09,26.50
2016,08,16,15,10,26.60
2016,08,16,15,11,26.70
2016,08,16,15,12,26.70
2016,08,16,15,13,26.60
2016,08,16,15,14,26.60
2016,08,16,15,15,26.60
2016,08,16,15,16,26.50
2016,08,16,15,17,26.50
2016,08,16,15,18,26.50
2016,08,16,15,19,26.50
2016,08,16,15,20,26.40
2016,08,16,15,21,26.40
2016,08,16,15,22,26.40
2016,08,16,15,23,26.50
2016,08,16,15,24,26.50
2016,08,16,15,25,26.50
2016,08,16,15,26,26.60
2016,08,16,15,27,26.70
2016,08,16,15,28,26.80
2016,08,16,15,29,26.90
2016,08,16,15,30,26.90
2016,08,16,15,31,27.00
2016,08,16,15,32,27.00
2016,08,16,15,33,26.90
2016,08,16,15,34,26.90
2016,08,16,15,35,26.90
2016,08,16,15,36,26.90
2016,08,16,15,37,26.90
2016,08,16,15,38,26.90
2016,08,16,15,39,26.90
2016,08,16,15,40,26.90
2016,08,16,15,41,26.90
2016,08,16,15,42,26.90
2016,08,16,15,43,26.80
2016,08,16,15,44,26.80
2016,08,16,15,45,26.80
2016,08,16,15,46,26.70
2016,08,16,15,47,26.70
2016,08,16,15,48,26.60
2016,08,16,15,49,26.60
2016,08,16,15,50,26.60
2016,08,16,15,51,26.60
2016,08,16,15,52,26.60
2016,08,16,15,53,26.60
2016,08,16,15,54,26.70
2016,08,16,15,55,26.70
2016,08,16,15,56,26.70
2016,08,16,15,57,26.80
2016,08,16,15,58,26.80
2016,08,16,15,59,26.80
2016,08,16,16,00,26.80
2016,08,16,16,01,26.70
2016,08,16,16,02,26.70
2016,08,16,16,03,26.70
2016,08,16,16,04,26.70
2016,08,16,16,05,26.80
2016,08,16,16,06,26.80
2016,08,16,16,07,26.80
2016,08,16,16,08,26.80
2016,08,16,16,09,26.90
2016,08,16,16,10,26.80
2016,08,16,16,11,26.80
2016,08,16,16,12,26.80
2016,08,16,16,13,26.80
2016,08,16,16,14,26.70
2016,08,16,16,15,26.70
2016,08,16,16,16,26.70
2016,08,16,16,17,26.70
2016,08,16,16,18,26.70
2016,08,16,16,19,26.80
2016,08,16,16,20,26.80
2016,08,16,16,21,26.80
2016,08,16,16,22,26.70
2016,08,16,16,23,26.70
2016,08,16,16,24,26.70
2016,08,16,16,25,26.60
2016,08,16,16,26,26.60
2016,08,16,16,27,26.60
2016,08,16,16,28,26.60
2016,08,16,16,29,26.60
2016,08,16,16,30,26.60
2016,08,16,16,31,26.60
2016,08,16,16,32,26.60
2016,08,16,16,33,26.60
2016,08,16,16,34,26.60
2016,08,16,16,35,26.60
2016,08,16,16,36,26.60
2016,08,16,16,37,26.60
2016,08,16,16,38,26.70
2016,08,16,16,39,26.70
2016,08,16,16,40,26.70
2016,08,16,16,41,26.70
2016,08,16,16,42,26.70
2016,08,16,16,43,26.80
2016,08,16,16,44,26.80
2016,08,16,16,45,26.80
2016,08,16,16,46,26.90
2016,08,16,16,47,26.90
2016,08,16,16,48,26.90
2016,08,16,16,49,27.00
2016,08,16,16,50,27.00
2016,08,16,16,51,26.90
2016,08,16,16,52,27.00
2016,08,16,16,53,27.00
2016,08,16,16,54,27.00
2016,08,16,16,55,27.00
2016,08,16,16,56,27.00
2016,08,16,16,57,27.10
2016,08,16,16,58,27.10
2016,08,16,16,59,27.10
2016,08,16,17,00,27.10
2016,08,16,17,01,27.10
2016,08,16,17,02,27.00
2016,08,16,17,03,27.00
2016,08,16,17,04,27.00
2016,08,16,17,05,27.00
2016,08,16,17,06,27.00
2016,08,16,17,07,27.00
2016,08,16,17,08,27.00
2016,08,16,17,09,27.10
2016,08,16,17,10,27.10
2016,08,16,17,11,27.10
2016,08,16,17,12,27.10
2016,08,16,17,13,27.10
2016,08,16,17,14,27.10
2016,08,16,17,15,27.10
2016,08,16,17,16,27.10
2016,08,16,17,17,27.10
2016,08,16,17,18,27.20
2016,08,16,17,19,27.20